Regional Weather Roundup
Issued by NWS

Home | Current Version | Previous Version | Text Only | Print | Product List | Glossary On
Versions: 1 2 3 4 5 6 7 8 9 10 11 12 13 14 15 16 17 18 19 20 21 22 23 24 25 26 27 28 29 30 31 32 33 34 35 36 37 38 39 40 41 42 43 44 45 46 47 48 49 50
000
ASUS43 KTOP 301659
RWRKS

WEATHER ROUNDUP FOR KANSAS
NATIONAL WEATHER SERVICE GOODLAND KS
1200 PM CDT SAT JUL 30 2016

NOTE:  "FAIR" INDICATES FEW OR NO CLOUDS BELOW 12,000 FEET WITH NO
SIGNIFICANT WEATHER AND/OR OBSTRUCTIONS TO VISIBILITY.

KSZ001>006-013>018-027>032-041>047-301800-
NORTHWEST KANSAS

CITY           SKY/WX    TMP DP  RH WIND       PRES   REMARKS
GOODLAND       SUNNY     80  62  54 SE9       30.01S
HAYS           PTSUNNY   82  63  51 S14       30.00S
HILL CITY      SUNNY     83  66  56 S13G20    30.00S
RUSSELL        CLOUDY    81  67  62 SE13      30.00S
$$

KSZ061>065-074>080-084>089-301800-
SOUTHWEST KANSAS

CITY           SKY/WX    TMP DP  RH WIND       PRES   REMARKS
DODGE CITY     SUNNY     82  67  60 S14       30.01F
ELKHART          N/A     82  59  45 S20         N/A
GARDEN CITY    SUNNY     82  65  56 S10       30.01S
GREAT BEND     PTSUNNY   79  64  61 SE13      30.00S
LIBERAL        SUNNY     84  61  45 S17       30.02F
$$

KSZ066>073-081>083-090>101-301800-
SOUTHEAST KANSAS

CITY           SKY/WX    TMP DP  RH WIND       PRES   REMARKS
CHANUTE        MOSUNNY   84  71  65 VRB3      30.03S
COFFEYVILLE    CLOUDY    84  70  62 SW8       30.04R
HUTCHINSON     PTSUNNY   80  69  69 SE13      30.02R
NEWTON         CLOUDY    80  68  66 S12       30.03S
PARSONS        PTSUNNY   85  71  63 S6        30.04R
WICHITA INTL   CLOUDY    77  68  73 SE9       30.00F
WICHITA JABRA  CLOUDY    77  69  76 SE10      30.01F
WICHITA MCCONL CLOUDY    76  67  75 S9        30.01F
WINFIELD       CLOUDY    76  72  87 NE8       30.02F
$$

KSZ007>012-019>026-033>040-048>060-102>105-301800-
NORTHEAST KANSAS

CITY           SKY/WX    TMP DP  RH WIND       PRES   REMARKS
CONCORDIA      MOSUNNY   83  68  60 S7        30.02S
EMPORIA        MOSUNNY   82  70  66 E8        30.02F
LAWRENCE       MOSUNNY   81  66  60 SE7       30.03F
MANHATTAN      SUNNY     83  69  62 VRB6      30.01S
OLATHE IND     MOSUNNY   81  63  54 VRB3      30.04F
OLATHE EXE     SUNNY     80  63  55 VRB3      30.04F
SALINA         MOSUNNY   88  66  48 S7        30.01R
TOPEKA BILLARD MOSUNNY   81  64  56 E7        30.03S
TOPEKA FORBES  MOSUNNY   83  67  58 S8        30.03F
$$



USA.gov is the U.S. government's official web portal to all federal, state and local government web resources and services.